Weather History for Belize, Belize

Change the Weather History Date:

Tuesday, April 15, 2014

  Actual Average Record
Temperature  
Mean Temperature 84 °F -  
Max Temperature 90 °F 88 °F 95 °F (2007)
Min Temperature 77 °F 74 °F 68 °F (2004)
Cooling Degree Days 18    
Growing Degree Days 34 (Base 50)    
Moisture  
Dew Point 76 °F    
Average Humidity 76    
Maximum Humidity 94    
Minimum Humidity 58    
Precipitation  
Precipitation 0.00 in 0.10 in - ()
Sea Level Pressure  
Sea Level Pressure 29.83 in    
Wind  
Wind Speed 5 mph ()    
Max Wind Speed 13 mph    
Max Gust Speed -    
Visibility 7.3 miles    
Events Rain    
Averages and records for this station are not official NWS values.
T = Trace of Precipitation, MM = Missing Value Source: Averaged Metar Reports

Daily Weather History Graph

Daily Weather History Graph

Search for Another Location

Airport:

Trip Planner

Search our weather history database for the weather conditions in past years. The results will help you decide how hot, cold, wet, or windy it might be!

Date:

Astronomy

Apr. 15, 2014 Rise Set
Actual Time 5:37 AM CST 6:09 PM CST
Civil Twilight 5:15 AM CST 6:31 PM CST
Nautical Twilight 4:49 AM CST 6:57 PM CST
Astronomical Twilight 4:23 AM CST 7:23 PM CST
Moon 6:44 PM CST (4/15) 5:46 AM CST (4/15)
Length of Visible Light 13h 16m
Length of Day
12h 32m
Full, 100% of the Moon is Illuminated
Apr 15
Full
Apr 22
Last Quarter
Apr 29
New
May 6
First Quarter
May 14
Full

Hourly Weather History & Observations

Time (CST) Temp. Heat Index Dew Point Humidity Pressure Visibility Wind Dir Wind Speed Gust Speed Precip Events Conditions
12:00 AM 80 °F - 74 °F 78% 29.82 in 14 mi ESE 6.9 mph - -   Mostly Cloudy
3:00 AM 79 °F - 75 °F 84% 29.79 in 12 mi Calm Calm - -   Partly Cloudy
5:00 AM 78.8 °F - 75.2 °F 89% 29.80 in 6.2 mi Calm Calm - N/A   Partly Cloudy
6:00 AM 77 °F - 75 °F 92% 29.82 in 12 mi Calm Calm - -   Scattered Clouds
6:00 AM 77.0 °F - 75.2 °F 94% 29.81 in 6.2 mi Calm Calm - N/A   Partly Cloudy
7:00 AM 80.6 °F 87.1 °F 77.0 °F 89% 29.84 in 6.2 mi ESE 5.8 mph - N/A   Partly Cloudy
8:00 AM 84.2 °F 92.3 °F 75.2 °F 74% 29.85 in 6.2 mi East 8.1 mph - N/A   Mostly Cloudy
9:00 AM 86 °F - 75 °F 62% 29.86 in 11 mi NE 5.8 mph - -   Partly Cloudy
9:00 AM 86.0 °F 95.1 °F 75.2 °F 70% 29.86 in 6.2 mi NE 5.8 mph - N/A   Scattered Clouds
10:00 AM 86.0 °F 95.1 °F 75.2 °F 70% 29.85 in 6.2 mi ENE 4.6 mph - N/A   Partly Cloudy
11:00 AM 87.8 °F 97.6 °F 75.2 °F 66% 29.85 in 6.2 mi NE 5.8 mph - N/A   Partly Cloudy
12:00 PM 89 °F - 76 °F 58% 29.85 in 11 mi ENE 8.1 mph - -   Partly Cloudy
12:00 PM 87.8 °F 99.7 °F 77.0 °F 70% 29.84 in 6.2 mi ENE 8.1 mph - N/A   Partly Cloudy
12:40 PM 87.8 °F 99.7 °F 77.0 °F 70% 29.83 in 3.1 mi NE 11.5 mph - N/A Rain Light Rain Showers
12:48 PM 87.8 °F 99.7 °F 77.0 °F 70% 29.83 in 5.0 mi ENE 11.5 mph - N/A Rain Light Rain Showers
1:00 PM 84.2 °F 96.1 °F 78.8 °F 84% 29.83 in 5.0 mi NE 9.2 mph - N/A   Mostly Cloudy
2:00 PM 86.0 °F 96.9 °F 77.0 °F 74% 29.80 in 6.2 mi ENE 9.2 mph - N/A   Scattered Clouds
3:00 PM 89 °F - 77 °F 60% 29.79 in 11 mi ENE 8.1 mph - -   Haze
3:00 PM 89.6 °F 102.2 °F 77.0 °F 66% 29.79 in 6.2 mi ENE 8.1 mph - N/A   Partly Cloudy
4:00 PM 87.8 °F 99.7 °F 77.0 °F 70% 29.78 in 6.2 mi ENE 12.7 mph - N/A   Partly Cloudy
5:00 PM 84.2 °F 94.1 °F 77.0 °F 79% 29.79 in 6.2 mi ENE 9.2 mph - N/A   Scattered Clouds
6:00 PM 84 °F - 77 °F 74% 29.82 in 7 mi ENE 6.9 mph - -   Haze
6:00 PM 84.2 °F 94.1 °F 77.0 °F 79% 29.82 in 6.2 mi ENE 6.9 mph - N/A   Scattered Clouds
7:00 PM 84.2 °F 94.1 °F 77.0 °F 79% 29.83 in 6.2 mi ENE 6.9 mph - N/A   Partly Cloudy
8:00 PM 82.4 °F 90.9 °F 77.0 °F 84% 29.85 in 6.2 mi ENE 4.6 mph - N/A   Partly Cloudy
9:00 PM 81 °F - 77 °F 83% 29.89 in 7 mi ESE 2.3 mph - -   Haze